Regional Weather Roundup
Issued by NWS Charleston, SC

Current Version | Previous Version | Graphics & Text | Print | Product List | Glossary On
Versions: 1 2 3 4 5 6 7 8 9 10 11 12 13 14 15 16 17 18 19 20 21 22 23 24 25 26 27 28 29 30 31 32 33 34 35 36 37 38 39 40 41 42 43 44 45 46 47 48 49 50
000 ASUS42 KCHS 230227 RWRCHS REGIONAL WEATHER ROUNDUP NATIONAL WEATHER SERVICE CHARLESTON SC 1000 PM EDT WED MAR 22 2017 NOTE: "FAIR" INDICATES FEW OR NO CLOUDS BELOW 12,000 FEET WITH NO SIGNIFICANT WEATHER AND/OR OBSTRUCTIONS TO VISIBILITY. NOT ALL STATIONS ARE QUALITY CONTROLLED. USE DATA WITH CAUTION... ESPECIALLY DEWPOINT OBSERVATIONS. SCZ027-030-031-034>040-042>050-230300- ...SOUTHEAST SOUTH CAROLINA... CITY SKY/WX TMP DP RH WIND PRES REMARKS N CHARLESTON PTCLDY 57 49 74 NE7 30.27R WATERFRONT PRK N/A 60 54 80 NE12 30.24R JOHNS ISLAND FAIR 59 54 82 NE8G15 30.28R PINOPOLIS N/A 61 41 48 NE7 30.17R MONCKS CORNER FAIR 55 30 38 CALM 30.29R SUMMERVILLE FAIR 57 34 41 CALM 30.29R BEAUFORT MCAS PTCLDY 60 54 80 NE7 30.25R BEAUFORT ARPT FAIR 59 54 82 NE13 30.25R HILTON HEAD IS PTCLDY N/A N/A N/A NE10 30.25R WALTERBORO PTCLDY 55 32 41 NE5 30.28R ALLENDALE FAIR 61 32 33 VRB5 30.25R ...SOUTHERN MIDLANDS AND PEE DEE... CITY SKY/WX TMP DP RH WIND PRES REMARKS GEORGETOWN FAIR 54 48 82 NE9 30.31R KINGSTREE FAIR 52 27 37 CALM 30.30R ORANGEBURG CLOUDY 57 34 41 NE6 30.27R BARNWELL FAIR 59 32 36 NE8 30.27R AIKEN FAIR 54 30 40 NE8 30.31R MANNING FAIR 48 34 57 CALM 30.29R COLUMBIA PTCLDY 57 31 37 E6 30.28R SUMTER CLEAR 50 30 45 NE3 30.26R FLORENCE CLEAR 52 28 39 N8 30.29R MYRTLE BEACH MOCLDY 55 45 67 E12G25 30.32R N MYRTLE BEACH PTCLDY 53 44 71 E14 30.32R $$ GAZ063-065-086>088-099>101-113>116-118-119-134>141-150-230300- ...SOUTHEAST GEORGIA... CITY SKY/WX TMP DP RH WIND PRES REMARKS SAVANNAH ARPT MOCLDY 61 51 70 E9 30.23R HUNTER AAF MOCLDY 62 56 81 E12 30.20R FORT STEWART MOCLDY 61 52 72 E7 30.19R STATESBORO PTCLDY 63 55 73 E7 30.23R SYLVANIA PTCLDY N/A N/A N/A E7 30.25R CLAXTON FAIR N/A N/A N/A NE9 30.23R ...CSRA...CENTRAL AND FAR SOUTHEAST GEORGIA... CITY SKY/WX TMP DP RH WIND PRES REMARKS THOMSON PTCLDY 59 35 40 MISG 30.30R AUGUSTA-BUSH PTCLDY 62 35 36 E10G17 30.24R AUGUSTA-DANIEL PTCLDY 62 28 27 NE13G21 30.25R SWAINSBORO CLOUDY 64 45 48 NE10G16 30.22R VIDALIA CLOUDY 70 55 60 SE8 30.20R EASTMAN FAIR 68 40 36 NE3 30.21R HAZLEHURST FAIR 69 58 68 SE8 30.18R ALMA PTCLDY 66 51 58 E9 30.17R WAYCROSS CLEAR 67 57 71 E13G21 30.19R JESUP MOCLDY 63 54 72 E7 30.21R BAXLEY FAIR 64 55 72 E8G17 30.19R BRUNSWICK MOCLDY 63 61 94 NE9 30.20R SAINT SIMONS CLEAR 64 57 78 NE12 30.18R $$ SCZ027-028-034-036>038-045-046-048>050-GAZ119-141-230300- ...LAKE AND SUPPLEMENTAL COASTAL OBSERVATIONS... STATION/POSITION TIME TEMP WIND PRES WAVE SWELL AIR SEA DIR/SP/G HT/PER HT/PER/DIR (UTC) (F) (DEG/KT/KT) (MB) (FT/S) (FT/S/D) WINYAH BAY 0145 58 70/ 12 1025.0R LAKE MURRAY 0150 56 40/ 4/ 6 1024.7R ACE BASIN NERRS 0130 60 40/ 3 1024.0R FORT PULASKI 0200 62 61 70/ 14/ 18 1023.7 SAPELO ISLAND 0200 63 70/ 8 1022.0 $$ ANZ835-935-AMZ111-154-330-350-352-354-370-450-454-472-230300- ...C-MAN AND BUOY OBSERVATIONS... STATION/POSITION TIME TEMP WIND PRES WAVE SWELL AIR SEA DIR/SP/G HT/PER HT/PER/DIR (UTC) (F) (DEG/KT/KT) (MB) (FT/S) (FT/S/D) BUOY 41004 0150 64 66 50/ 21/ 25 1023.1R 6/ 7 3/ 30/10 BUOY 41008 0150 64 62 80/ 17/ 21 1021.5R 5/ 6 2/150/11 FOLLY BEACH CMAN 0200 60 50/ 17/ 19 1025.4R CAPERS NEARSHORE 0108 60 50/ 14/ 17 1023.9R FRIPP NEARSHORE 0208 61 60 50/ 16/ 17 1024.0R STATION/POSITION TIME TEMP WIND PRES WAVE SWELL AIR SEA DIR/SP/G HT/PER HT/PER/DIR (UTC) (F) (DEG/KT/KT) (MB) (FT/S) (FT/S/D) 5E ST. MARYS GA 0200 64 N/A 5/ 5 2/ 80/11 FRYING PAN BUOY 0210 57 63 40/ 25/ 31 1026.3 BUOY 41025 0150 47 75 30/ 21/ 29 1028.2R 11/11 7/ 60/11 CAPE LOOKOUT NC 0200 48 40/ 26/ 29 1028.0R BUOY 41002 0150 64 74 20/ 27/ 31 1021.1R 9/ 7 7/360/ 8 BUOY 41010 NOT AVBL ST AUGUSTINE FL 0200 67 67 40/ 12/ 13 1021.6R $$

USA.gov is the U.S. government's official web portal to all federal, state and local government web resources and services.